�N����,����,�~����,�C��,���x,�C��,����,���ϕ���,�ő�u�ԕ���,�ő厞����,���˗�,�I�_���x,�n�����x,�ő啗���N��,DTYPE
"23/10/22","00:10",0.0,9.5,93.8,1015.2,307.7,2.3,3.4,309.1,0.00,8.6,16.0,"00:05:32",1
"23/10/22","00:20",0.0,10.0,93.7,1015.4,317.7,2.7,5.0,323.2,0.00,9.1,16.1,"00:11:28",1
"23/10/22","00:30",0.0,10.3,93.3,1014.9,311.8,2.7,4.4,325.4,0.00,9.3,16.0,"00:27:20",1
"23/10/22","00:40",0.0,10.5,92.8,1015.6,319.3,3.0,4.4,331.4,0.00,9.4,15.8,"00:35:28",1
"23/10/22","00:50",0.0,10.6,92.5,1015.6,314.4,2.8,5.1,336.8,0.00,9.5,15.8,"00:40:24",1
"23/10/22","01:00",0.0,10.6,92.0,1015.2,321.1,2.5,3.9,314.5,0.00,9.4,15.7,"00:52:56",1
"23/10/22","01:10",0.0,10.2,91.5,1015.6,308.6,0.6,2.1,334.2,0.00,8.9,15.8,"01:00:16",1
"23/10/22","01:20",0.0,10.0,91.5,1015.6,316.9,1.6,2.7,330.1,0.00,8.7,15.9,"01:16:34",1
"23/10/22","01:30",0.0,9.7,91.4,1015.4,310.9,1.6,2.8,315.5,0.00,8.4,15.8,"01:27:36",1
"23/10/22","01:40",0.0,9.3,91.5,1015.4,304.9,2.0,2.7,323.7,0.00,8.0,15.6,"01:36:16",1
"23/10/22","01:50",0.0,9.2,91.7,1015.6,314.9,1.7,2.7,333.7,0.00,8.0,15.8,"01:47:04",1
"23/10/22","02:00",0.0,9.1,92.0,1015.6,326.7,1.8,2.9,328.6,0.00,7.9,15.9,"01:59:28",1
"23/10/22","02:10",0.0,9.1,92.2,1015.4,318.6,2.0,3.1,329.6,0.00,7.9,15.7,"02:00:24",1
"23/10/22","02:20",0.0,9.0,92.5,1015.9,329.6,1.5,2.5,341.0,0.00,7.9,15.7,"02:16:24",1
"23/10/22","02:30",0.0,8.8,92.8,1015.6,310.6,1.8,3.3,322.6,0.00,7.7,15.6,"02:27:04",1
"23/10/22","02:40",0.0,8.5,93.1,1015.4,300.9,0.6,1.4,313.6,0.00,7.5,15.7,"02:30:08",1
"23/10/22","02:50",0.0,8.5,93.4,1015.4,301.8,1.6,2.8,321.8,0.00,7.5,15.6,"02:49:12",1
"23/10/22","03:00",0.0,8.2,93.5,1015.6,313.5,2.1,3.2,344.0,0.00,7.3,15.7,"02:55:04",1
"23/10/22","03:10",0.0,7.8,93.8,1015.9,295.8,1.8,2.6,316.0,0.00,6.9,15.6,"03:00:56",1
"23/10/22","03:20",0.0,7.6,94.1,1015.6,299.0,1.8,3.1,317.7,0.00,6.8,15.5,"03:18:00",1
"23/10/22","03:30",0.0,7.9,94.4,1015.9,321.0,2.1,3.2,346.8,0.00,7.1,15.5,"03:25:44",1
"23/10/22","03:40",0.0,7.8,94.5,1015.9,301.3,2.2,3.3,311.2,0.00,7.0,15.6,"03:33:28",1
"23/10/22","03:50",0.0,7.8,94.7,1016.1,297.6,2.2,3.2,323.0,0.00,7.0,15.3,"03:44:32",1
"23/10/22","04:00",0.0,7.9,94.9,1016.4,302.2,2.2,2.8,298.5,0.00,7.2,15.2,"03:51:36",1
"23/10/22","04:10",0.0,7.7,95.1,1016.4,291.2,2.1,2.7,314.5,0.00,7.0,15.3,"04:08:40",1
"23/10/22","04:20",0.0,7.9,95.3,1016.8,287.2,2.2,3.3,322.9,0.00,7.2,15.3,"04:10:02",1
"23/10/22","04:30",0.0,8.0,95.4,1016.6,308.1,2.6,4.1,315.9,0.00,7.4,15.3,"04:27:36",1
"23/10/22","04:40",0.0,8.4,95.5,1016.8,292.0,2.5,3.6,316.6,0.00,7.8,15.3,"04:37:36",1
"23/10/22","04:50",0.0,8.4,95.7,1016.6,296.5,2.5,3.4,305.1,0.00,7.8,15.2,"04:42:08",1
"23/10/22","05:00",0.0,8.3,95.8,1016.6,299.4,2.0,3.4,324.8,0.00,7.7,15.2,"04:54:08",1
"23/10/22","05:10",0.0,8.0,95.9,1016.6,296.1,1.3,2.6,307.6,0.00,7.4,15.1,"05:09:28",1
"23/10/22","05:20",0.0,8.0,96.1,1016.6,302.6,2.6,3.2,310.9,0.00,7.5,15.2,"05:17:36",1
"23/10/22","05:30",0.0,8.0,96.3,1016.8,309.5,2.0,3.2,307.0,0.00,7.5,15.1,"05:20:16",1
"23/10/22","05:40",0.0,7.7,96.3,1016.8,305.1,2.3,3.4,312.5,0.00,7.2,15.1,"05:34:24",1
"23/10/22","05:50",0.0,8.2,96.5,1016.8,313.2,2.7,3.7,324.1,0.00,7.7,14.9,"05:41:52",1
"23/10/22","06:00",0.0,8.4,96.5,1017.3,300.8,2.0,3.4,312.7,0.00,7.9,15.1,"05:50:56",1
"23/10/22","06:10",0.0,8.2,96.5,1017.3,302.2,2.0,3.2,323.4,0.00,7.7,14.9,"06:01:04",1
"23/10/22","06:20",0.0,7.8,96.6,1017.3,290.7,1.5,1.9,308.2,0.00,7.3,15.1,"06:15:44",1
"23/10/22","06:30",0.0,7.8,96.9,1017.1,302.1,2.1,2.8,315.5,0.00,7.4,15.0,"06:20:02",1
"23/10/22","06:40",0.0,8.3,97.0,1017.8,310.3,1.7,2.8,314.7,0.00,7.9,15.0,"06:32:16",1
"23/10/22","06:50",0.0,8.9,97.0,1017.5,312.0,1.6,2.7,323.1,0.00,8.5,15.0,"06:48:08",1
"23/10/22","07:00",0.0,9.4,97.0,1017.8,332.0,1.5,2.1,327.0,0.01,9.0,14.7,"06:50:16",1
"23/10/22","07:10",0.0,9.8,96.9,1018.0,327.0,1.7,3.2,342.1,0.02,9.4,14.9,"07:04:16",1
"23/10/22","07:20",0.0,10.4,96.8,1018.5,333.4,1.2,2.1,344.3,0.03,10.0,14.8,"07:12:58",1
"23/10/22","07:30",0.0,10.5,96.5,1018.5,326.9,1.6,2.4,322.5,0.05,10.0,15.0,"07:23:36",1
"23/10/22","07:40",0.0,11.0,96.3,1018.7,319.2,1.2,2.2,323.9,0.07,10.5,14.7,"07:38:32",1
"23/10/22","07:50",0.0,11.0,95.9,1018.7,305.3,1.3,2.8,340.6,0.09,10.4,15.0,"07:40:24",1
"23/10/22","08:00",0.0,11.5,95.5,1019.0,306.9,1.2,2.2,339.2,0.11,10.8,14.7,"07:50:56",1
"23/10/22","08:10",0.0,12.1,94.8,1019.4,238.5,0.6,1.8,333.8,0.13,11.3,14.7,"08:00:16",1
"23/10/22","08:20",0.0,12.4,94.1,1019.7,142.9,0.5,1.2,156.1,0.16,11.5,14.8,"08:12:32",1
"23/10/22","08:30",0.0,12.9,92.9,1019.9,241.0,0.5,1.2,135.7,0.18,11.8,14.7,"08:23:04",1
"23/10/22","08:40",0.0,13.3,90.9,1020.1,322.0,0.6,1.3,336.0,0.21,11.9,15.0,"08:35:44",1
"23/10/22","08:50",0.0,13.7,88.8,1019.7,238.2,0.8,1.8,231.3,0.23,11.9,14.9,"08:40:24",1
"23/10/22","09:00",0.0,14.0,85.7,1019.7,85.9,0.7,1.7,146.7,0.25,11.7,15.1,"08:53:52",1
"23/10/22","09:10",0.0,14.6,82.8,1020.1,353.2,0.7,1.7,333.5,0.27,11.8,15.0,"09:05:20",1
"23/10/22","09:20",0.0,14.9,80.8,1019.4,91.6,0.7,1.7,66.8,0.29,11.7,15.0,"09:10:56",1
"23/10/22","09:30",0.0,15.4,78.6,1019.4,338.8,0.6,1.2,308.6,0.31,11.7,15.1,"09:21:04",1
"23/10/22","09:40",0.0,15.7,76.9,1019.2,195.4,0.8,2.0,197.1,0.33,11.7,15.0,"09:38:08",1
"23/10/22","09:50",0.0,15.6,75.4,1019.0,204.2,1.0,2.0,202.3,0.34,11.3,15.3,"09:43:52",1
"23/10/22","10:00",0.0,15.8,75.3,1018.7,268.0,1.2,2.8,191.9,0.36,11.5,15.2,"09:52:32",1
"23/10/22","10:10",0.0,16.5,73.5,1018.5,200.4,0.8,2.4,110.1,0.37,11.8,15.2,"10:09:44",1
"23/10/22","10:20",0.0,16.8,71.1,1018.5,268.7,1.0,3.6,232.3,0.38,11.6,15.4,"10:18:24",1
"23/10/22","10:30",0.0,16.8,70.6,1018.5,205.2,1.0,2.8,220.5,0.40,11.5,15.3,"10:28:08",1
"23/10/22","10:40",0.0,17.5,69.4,1018.2,128.2,0.8,2.6,114.9,0.41,11.9,15.6,"10:34:08",1
"23/10/22","10:50",0.0,17.7,67.9,1018.2,202.1,0.8,2.1,195.1,0.42,11.7,15.8,"10:44:56",1
"23/10/22","11:00",0.0,18.2,67.1,1018.0,148.7,1.1,2.8,116.9,0.43,12.0,15.9,"10:54:00",1
"23/10/22","11:10",0.0,18.4,65.2,1017.5,123.5,1.0,2.4,146.7,0.43,11.8,15.8,"11:05:20",1
"23/10/22","11:20",0.0,18.1,62.3,1017.5,221.2,1.5,3.7,226.9,0.45,10.8,16.0,"11:18:24",1
"23/10/22","11:30",0.0,18.6,59.0,1017.3,269.5,1.3,5.1,230.4,0.45,10.5,15.9,"11:29:28",1
"23/10/22","11:40",0.0,18.4,53.7,1017.3,241.7,1.7,4.3,241.3,0.35,8.9,16.0,"11:31:36",1
"23/10/22","11:50",0.0,18.8,55.2,1016.8,235.8,1.5,3.5,242.6,0.42,9.7,16.1,"11:43:36",1
"23/10/22","12:00",0.0,19.8,53.3,1016.6,224.9,1.0,2.5,231.5,0.46,10.1,16.2,"11:59:28",1
"23/10/22","12:10",0.0,19.9,50.8,1016.4,224.7,2.1,5.1,236.4,0.46,9.5,16.2,"12:07:44",1
"23/10/22","12:20",0.0,19.9,48.6,1016.1,268.1,2.0,4.8,332.2,0.44,8.8,16.4,"12:16:48",1
"23/10/22","12:30",0.0,19.8,50.7,1016.1,254.9,2.0,4.7,228.0,0.42,9.3,16.6,"12:22:40",1
"23/10/22","12:40",0.0,18.8,48.9,1016.1,256.3,2.2,4.8,213.6,0.25,7.9,16.6,"12:39:12",1
"23/10/22","12:50",0.0,19.2,52.2,1015.6,270.7,1.7,3.4,247.1,0.36,9.2,16.6,"12:47:28",1
"23/10/22","13:00",0.0,19.1,53.1,1015.6,248.8,2.7,4.5,226.2,0.29,9.4,16.6,"12:56:48",1
"23/10/22","13:10",0.0,18.5,53.4,1015.4,233.0,2.1,5.7,215.8,0.14,8.9,16.8,"13:09:28",1
"23/10/22","13:20",0.0,19.5,52.3,1015.4,284.1,1.6,4.8,327.1,0.31,9.5,16.9,"13:14:24",1
"23/10/22","13:30",0.0,18.8,55.1,1015.2,232.6,2.2,3.7,192.0,0.13,9.6,17.0,"13:24:40",1
"23/10/22","13:40",0.0,19.5,54.5,1015.4,261.4,1.3,2.8,327.6,0.27,10.1,16.7,"13:33:52",1
"23/10/22","13:50",0.0,20.2,51.0,1015.2,255.8,1.6,3.6,322.9,0.33,9.8,17.1,"13:49:36",1
"23/10/22","14:00",0.0,20.4,49.6,1015.2,284.9,1.7,4.5,336.8,0.33,9.6,16.9,"13:59:44",1
"23/10/22","14:10",0.0,20.5,49.3,1014.9,283.1,1.7,4.3,325.5,0.29,9.6,17.1,"14:03:52",1
"23/10/22","14:20",0.0,20.8,49.6,1014.9,322.4,1.7,4.0,324.3,0.29,9.9,17.1,"14:16:56",1
"23/10/22","14:30",0.0,20.7,49.3,1014.9,276.1,1.3,3.2,345.1,0.22,9.7,17.3,"14:23:12",1
"23/10/22","14:40",0.0,20.1,50.1,1015.2,261.3,1.3,4.2,245.3,0.14,9.4,17.3,"14:34:40",1
"23/10/22","14:50",0.0,19.6,51.5,1015.4,312.8,1.6,3.3,328.2,0.09,9.4,17.3,"14:44:56",1
"23/10/22","15:00",0.0,19.8,50.5,1014.9,249.9,1.2,3.1,245.7,0.10,9.3,17.4,"14:58:00",1
"23/10/22","15:10",0.0,20.4,52.8,1015.4,274.3,1.0,2.5,240.6,0.17,10.5,17.3,"15:00:16",1
"23/10/22","15:20",0.0,20.6,50.1,1015.2,227.9,1.1,2.7,223.9,0.16,9.9,17.4,"15:16:08",1
"23/10/22","15:30",0.0,20.8,49.2,1015.2,261.7,0.7,1.4,302.1,0.11,9.8,17.5,"15:23:12",1
"23/10/22","15:40",0.0,20.4,51.0,1015.2,179.3,1.0,2.2,130.2,0.10,10.0,17.4,"15:32:48",1
"23/10/22","15:50",0.0,20.1,51.8,1015.2,236.4,1.2,3.5,199.9,0.08,9.9,17.5,"15:48:40",1
"23/10/22","16:00",0.0,19.4,52.0,1015.4,213.6,1.5,3.1,149.7,0.05,9.3,17.5,"15:55:52",1
"23/10/22","16:10",0.0,19.1,53.2,1015.2,217.4,1.8,4.0,209.0,0.04,9.4,17.4,"16:01:28",1
"23/10/22","16:20",0.0,19.0,54.4,1015.4,228.1,1.6,2.9,218.3,0.04,9.6,17.6,"16:11:52",1
"23/10/22","16:30",0.0,18.8,55.0,1015.4,223.3,1.6,3.7,222.6,0.03,9.6,17.5,"16:29:44",1
"23/10/22","16:40",0.0,18.3,56.6,1015.6,226.8,2.0,4.0,233.0,0.01,9.6,17.5,"16:30:08",1
"23/10/22","16:50",0.0,17.8,59.3,1015.9,225.9,2.1,3.2,227.2,0.00,9.8,17.4,"16:40:40",1
"23/10/22","17:00",0.0,17.4,62.1,1015.9,240.4,1.3,3.5,229.2,0.00,10.1,17.4,"16:50:24",1
"23/10/22","17:10",0.0,17.1,62.3,1015.9,262.2,1.5,2.8,229.8,0.00,9.9,17.4,"17:06:08",1
"23/10/22","17:20",0.0,16.8,63.2,1016.1,300.2,1.2,1.9,305.5,0.00,9.8,17.2,"17:12:16",1
"23/10/22","17:30",0.0,16.2,65.9,1016.6,334.9,1.2,1.9,330.9,0.00,9.9,17.3,"17:21:50",1
"23/10/22","17:40",0.0,15.6,67.9,1016.6,325.0,1.2,1.9,338.5,0.00,9.7,17.3,"17:30:36",1
"23/10/22","17:50",0.0,15.1,69.6,1016.6,322.7,1.2,2.0,323.5,0.00,9.6,17.2,"17:47:24",1
"23/10/22","18:00",0.0,14.9,70.9,1016.6,330.0,1.3,1.9,329.7,0.00,9.7,17.3,"17:51:32",1
"23/10/22","18:10",0.0,14.8,71.5,1016.8,328.3,1.5,2.1,331.4,0.00,9.7,17.2,"18:07:54",1
"23/10/22","18:20",0.0,14.7,71.8,1016.6,312.8,1.3,1.6,325.1,0.00,9.7,17.1,"18:14:22",1
"23/10/22","18:30",0.0,14.2,72.5,1016.8,310.2,1.1,1.6,324.7,0.00,9.4,17.1,"18:27:44",1
"23/10/22","18:40",0.0,14.0,73.9,1016.8,306.2,1.3,1.9,329.3,0.00,9.5,17.2,"18:37:30",1
"23/10/22","18:50",0.0,13.8,75.1,1017.1,281.6,1.1,1.8,318.0,0.00,9.5,17.1,"18:48:00",1
"23/10/22","19:00",0.0,13.8,75.9,1017.1,306.4,1.3,2.4,323.2,0.00,9.7,17.1,"18:55:06",1
"23/10/22","19:10",0.0,13.5,76.8,1017.3,282.6,0.5,1.7,289.3,0.00,9.6,17.1,"19:09:34",1
"23/10/22","19:20",0.0,13.7,77.1,1017.5,320.5,1.8,2.6,325.8,0.00,9.8,16.8,"19:13:24",1
"23/10/22","19:30",0.0,13.6,78.0,1017.5,324.0,1.7,2.7,339.9,0.00,9.9,16.7,"19:20:56",1
"23/10/22","19:40",0.0,13.1,79.2,1017.3,301.0,1.3,1.7,314.9,0.00,9.6,17.0,"19:30:08",1
"23/10/22","19:50",0.0,12.8,80.1,1018.0,289.0,1.1,1.6,291.9,0.00,9.5,16.7,"19:49:42",1
"23/10/22","20:00",0.0,12.6,81.1,1018.0,293.6,1.6,2.1,317.9,0.00,9.5,16.8,"19:57:32",1
"23/10/22","20:10",0.0,12.5,82.1,1018.0,306.7,1.8,2.0,319.4,0.00,9.6,16.8,"20:01:14",1
"23/10/22","20:20",0.0,12.8,82.8,1018.0,325.0,2.1,3.5,311.5,0.00,10.0,16.7,"20:11:22",1
"23/10/22","20:30",0.0,12.8,83.1,1018.0,314.0,2.1,3.3,322.9,0.00,10.0,16.7,"20:22:46",1
"23/10/22","20:40",0.0,12.7,83.4,1018.2,294.0,1.7,2.7,319.9,0.00,10.0,16.6,"20:34:04",1
"23/10/22","20:50",0.0,12.5,83.5,1018.5,294.8,1.3,1.9,287.6,0.00,9.8,16.7,"20:42:16",1
"23/10/22","21:00",0.0,12.1,83.8,1018.2,296.8,1.2,1.6,306.6,0.00,9.5,16.6,"20:56:28",1
"23/10/22","21:10",0.0,11.6,84.5,1018.2,290.5,1.1,1.6,320.7,0.00,9.1,16.6,"21:04:16",1
"23/10/22","21:20",0.0,11.4,85.0,1018.2,309.6,1.0,1.9,316.9,0.00,9.0,16.4,"21:11:06",1
"23/10/22","21:30",0.0,11.2,85.6,1018.2,306.5,1.7,2.0,321.0,0.00,8.9,16.5,"21:26:08",1
"23/10/22","21:40",0.0,11.3,86.5,1018.2,320.4,1.8,2.4,326.0,0.00,9.2,16.3,"21:36:02",1
"23/10/22","21:50",0.0,11.0,87.0,1018.5,301.4,1.3,2.0,320.5,0.00,9.0,16.4,"21:40:08",1
"23/10/22","22:00",0.0,10.7,87.4,1018.2,304.0,1.3,1.8,317.4,0.00,8.7,16.3,"21:55:36",1
"23/10/22","22:10",0.0,10.8,88.1,1018.2,316.3,2.0,2.7,321.0,0.00,9.0,16.2,"22:08:40",1
"23/10/22","22:20",0.0,10.5,88.6,1018.2,309.1,1.8,2.2,318.4,0.00,8.7,16.2,"22:11:04",1
"23/10/22","22:30",0.0,10.3,89.2,1018.2,292.2,1.3,2.0,314.0,0.00,8.6,16.1,"22:21:12",1
"23/10/22","22:40",0.0,10.3,89.7,1018.2,295.7,1.5,2.0,309.8,0.00,8.7,16.3,"22:35:28",1
"23/10/22","22:50",0.0,10.5,90.0,1018.2,310.6,2.0,2.5,315.1,0.00,9.0,16.2,"22:46:24",1
"23/10/22","23:00",0.0,10.6,90.5,1018.2,317.8,2.1,2.8,322.2,0.00,9.2,16.1,"22:57:28",1
"23/10/22","23:10",0.0,10.6,90.6,1018.5,297.9,1.6,2.0,311.1,0.00,9.2,16.1,"23:00:16",1
"23/10/22","23:20",0.0,10.5,90.9,1018.0,292.0,1.6,2.2,323.0,0.00,9.1,16.0,"23:19:04",1
"23/10/22","23:30",0.0,10.3,90.9,1018.5,321.9,2.0,2.6,325.4,0.00,8.9,16.2,"23:22:40",1
"23/10/22","23:40",0.0,9.9,91.1,1018.2,293.9,1.2,1.7,328.4,0.00,8.6,16.0,"23:30:08",1
"23/10/22","23:50",0.0,9.7,91.5,1018.0,312.7,1.1,2.2,310.8,0.00,8.4,16.0,"23:48:48",1
"23/10/22","24:00",0.0,9.4,91.7,1018.2,319.6,1.8,2.5,311.6,0.00,8.2,15.9,"23:50:08",1
